Kendal Mountain Festival 10K Trail 2018

#NameBibCatClub/TeamTime
10K
1Dan Nash369MCardiff AAC0:39:01Finish
2James Appleton590MKeswick AC0:39:37Finish
3Matthew Elkington155MAmbleside AC0:40:37Finish
4Tom Fellbaum169MPennine Fell Runners0:41:50Finish
5Jack Wright561MAmbleside AC0:42:03Finish
6Michael Ainsworth6MHelm Hill Runners0:42:06Finish
7Samuel Russell455MAlpKit 0:42:10Finish
8James McGurk346M0:42:59Finish
9Sarah McCormack341FAmbleside0:43:03Finish
10Jack Scott467M0:43:22Finish
11Tom Hartley223MKendal AAC0:43:23Finish
12Oli Murphy588M0:43:27Finish
13Seb Sillito474MHelm Hill0:43:36Finish
14Kieran Hodgson242M40Helm Hill0:43:42Finish
15Paul Tierney510MAmbleside AC0:44:01Finish
16John Helme230M40Ambleside AC0:44:30Finish
17Ben Procter422MHelm Hill Runners0:44:37Finish
18Andy Thompson509MHELM HILL0:44:46Finish
19Matt Green207MSalomon0:44:54Finish
20James Warner Sith535M0:45:03Finish
21Kell Roberts444FHelm Hill Runners0:45:21Finish
22James Haworth226M40Keswick AC0:45:26Finish
23Adrian Bellwood43M0:45:29Finish
24Simeon Musgreave585MDiaz0:45:33Finish
25Chris Dunn601MTerrex0:45:35Finish
26James Chapman95M0:45:38Finish
27Michael Tosh518MAmbleside AC0:45:44Finish
28Paul Reilly438M40Helm hill0:46:00Finish
29Peter Rigby442MHelm Hill0:46:07Finish
30Brad Pontin412MBristol & West AC0:46:07Finish
31Mark Syvret584M40Jersey Tri Club0:46:07Finish
32Matthew Fellbaum168MEdi Uni Orienteering Club0:46:14Finish
33Tom Levitt307M0:46:20Finish
34Joe Todd513M40Kendal aac 0:46:30Finish
35Jonny Muir366MCarnethy Hill Racing Club0:46:32Finish
36David Goadby199MHelm Hill0:46:39Finish
37Jacob Dyer151M40Helm Hill0:46:43Finish
38Emma Clayton98F0:46:53Finish
39Ellis Bland51M0:46:58Finish
40Bryan Potts418MElvet Striders0:47:19Finish
41Chris Lines308M40Sedgefield Harriers0:47:22Finish
42Martin Oldfield379M50Darwen Dashers0:47:31Finish
43Simon Whittaker546MHelm Hill0:47:33Finish
44Catherine Slater477FHelm Hill0:47:38Finish
45Jim Ryder456M500:47:41Finish
46Andy Johnson272M0:47:45Finish
47Justin Tancrel572M40Helm Hill0:47:45Finish
48James Baron30M50Helm Hill0:48:00Finish
49Benjamin Hodgson241MKendal Tri Club0:48:00Finish
50Jack Simpson475M0:48:27Finish
51James MacKeddie323M0:48:29Finish
52Finlay Leather304MHelm0:48:41Finish
53Alex Kendall283MHowgill Harriers0:48:46Finish
54Mike Pauley405M500:48:47Finish
55Mike Berners-Lee591M50Helm Hill0:48:50Finish
56Craig Burrow75M40Helm Hill Runners0:48:54Finish
57Robert Moffat357MHowgill harriers0:48:57Finish
58Gareth White563M400:49:01Finish
59Martin Lane297M0:49:02Finish
60James Fairbank620M0:49:09Finish
61Andrew Hebson229MHelm Hill0:49:18Finish
62James Todhunter515MHelm Hill0:49:34Finish
63Matthew Howard257M0:49:35Finish
64Peter German190M0:49:35Finish
65Steve Parker400M400:49:42Finish
66Nicholas Barber26MTr@il P1mpzz0:49:43Finish
67David Cottingham110M0:49:45Finish
68Billy Procter424M60Helm Hill0:49:45Finish
69Jonny Marchant329M400:49:49Finish
70Ian Handscomb221MBarry0:49:53Finish
71Sam Garrett188M0:50:03Finish
72Kieran Allen10M0:50:09Finish
73Kaisleigh Atkinson16F0:50:10Finish
74John Douglas140M40Allithwaite Running Club0:50:18Finish
75Graham Britton62M600:50:33Finish
76Sean Robinson447M40Howgill harriers0:50:39Finish
77Matthew Blakeley48M40Roundhay Runners0:50:46Finish
78Will Nelson371MLancon0:50:54Finish
79Paul Turner525M40Helm Hill Runners0:50:59Finish
80Jamie Ramsay583M0:51:01Finish
81Paul Gregory210M40wesham road runner0:51:03Finish
82Kristofer Dandy124M0:51:11Finish
83Shaun Addison2M50Helm Hill Vet 500:51:17Finish
84Josh Renshaw439M0:51:20Finish
85Carl Crompton117M400:51:28Finish
86David Chandler94M0:51:31Finish
87Craig Gardner599M0:51:33Finish
88Noora Ronkainen451FLiverpool Harriers0:51:38Finish
89Olli Tikkanen511MLiverpool Harriers0:51:40Finish
90Bianca Dyer150F40Helm Hill0:51:43Finish
91Gareth Bradbury53M400:51:53Finish
92Andrew King291M40Andrew King0:51:55Finish
93Emma Johnston275F0:52:10Finish
94James Isherwood267M40Beeston AC0:52:20Finish
95Tom Holman247M400:52:33Finish
96Alastair Graves205M0:52:33Finish
97David Quigley566M50Fuse0:52:34Finish
98James Lockhart311MThames Valley Triathletes0:52:35Finish
99Alex Slater478M0:52:36Finish
100Harriet Wingfield558F0:52:38Finish
101Tom Pybus427M0:52:41Finish
102Mark Hutchinson263M400:52:45Finish
103Philip Jones278M0:52:46Finish
104Graeme Schofield462M0:53:06Finish
105Kevin Robinson446M40Derwent AC0:53:12Finish
106John Roberts619M0:53:14Finish
107Chris Graham203M400:53:18Finish
108Stuart Holroyd251M0:53:21Finish
109Patrick Hickey234M0:53:30Finish
110Tom Lowman316M0:53:41Finish
111Anthony Palmer399M0:53:42Finish
112Sean Gibson598M0:53:44Finish
113Peter Cartlidge88M40Fuse0:53:54Finish
114Matthew Crane114M0:53:58Finish
115Ian Maudsley338M400:53:59Finish
116Joe Steele489M400:53:59Finish
117Niamh Jackson268F0:54:01Finish
118Stuart McGurk347M50Kendal AC0:54:02Finish
119Will Retchless587MBedale and Aiskew Runners0:54:05Finish
120Tim Rowe453M40FUSE0:54:06Finish
121Adam Dawson130M0:54:14Finish
122Kevin Perry615M500:54:15Finish
123Ed Poulter419M0:54:16Finish
124Jemima Osborn389FSwansea Harriers0:54:17Finish
125Chloe Brown69FHowgill Harriers0:54:28Finish
126Phil Blakey49M60Pbfitcamp0:54:29Finish
127Brian Thompson507M60Helm Hill0:54:32Finish
128Matthew Murgatroyd368M0:54:35Finish
129Alison Richards441F40Helm Hill0:54:46Finish
130David Appleyard11M50Helm Hill0:54:51Finish
131Mike Innerdale265M400:54:52Finish
132Lucy Spain486FHelm hill 0:54:54Finish
133Jenny Lyon317FDallam Running Club0:55:09Finish
134Michael Grice211MPez0:55:12Finish
135Arran Sayle460M40Lancon0:55:14Finish
136Oliver Blenkinsop564M0:55:16Finish
137Darren Coward112M0:55:26Finish
138Michael Long313M0:55:26Finish
139Daniel Thompson506M0:55:38Finish
140Matthew Slack476MSlackers0:55:40Finish
141Andrew Stokes491M60Dallam RC0:55:47Finish
142Paul Trott522M500:55:55Finish
143William Coupe111M50Helm Hill0:55:56Finish
144Andrew Douglas139M400:55:58Finish
145Emma Stuart493F0:56:03Finish
146Simon Oxley393M500:56:07Finish
147Janine Fallon163F40Lancon 0:56:07Finish
148Robert MacFarlane320M400:56:20Finish
149Mari Cole99F0:56:24Finish
150Alastair Humphreys262M600:56:26Finish
151Sarah Gerrish191FHelm Hill0:56:27Finish
152Michael Love315M0:56:33Finish
153Lucie Todhunter514F0:56:35Finish
154Catherine Houston600F400:56:39Finish
155Joseph Hoile244MFuse0:56:48Finish
156Richard Sykes496M500:56:49Finish
157Lucy Greenhill209F0:56:50Finish
158Lewis McIntyre348M50McIntyre 0:56:52Finish
159Alice Fellbaum167FAmbleside AC0:56:53Finish
160Samantha Crooks118F0:56:55Finish
161Kevin Fox185M40Hoad Hill Harriers0:56:57Finish
162Lewis Turner524M0:57:01Finish
163Eleanor Knowles294F40Ambleside AC0:57:05Finish
164Rick Jones280M400:57:06Finish
165Glen Dalton123MInspiredbyPez0:57:09Finish
166Kirsty Reade435F400:57:10Finish
167Alastair MacDonald318MHoad Hill Harriers0:57:11Finish
168Adam Perry408MHelm Hill0:57:12Finish
169David Raynor434M50Red Rose Road Runners 0:57:16Finish
170Steve Broadfoot63M50Knowsley Harriers & AC0:57:17Finish
171Richard Hermitage231M600:57:18Finish
172Nick Cannon Jones85M0:57:20Finish
173Andrew Kyle295MBandanakid0:57:21Finish
174Mark Fairbank162M0:57:22Finish
175John Noblet376M400:57:25Finish
176Caroline Holden245F50Helm hill fell runners0:57:27Finish
177Martin Pyrah429M40UTC0:57:29Finish
178Jasper Sanders457M400:57:35Finish
179Steve Elliot156M400:57:36Finish
180David Briggs60M400:57:40Finish
181Andy Hale217M40Red rose0:57:46Finish
182David Sexton469M400:57:47Finish
183Samuel Price420MFuse0:57:47Finish
184Steven Batty33M50Walney windcheetahs0:57:49Finish
185Jim Fisher174M50Howgill Harriers0:57:52Finish
186Jonny Grisedale214M40Helm Hill0:57:54Finish
187Richard Duncalf144M40Crystal0:57:55Finish
188Katy White-Marsh545F400:57:57Finish
189Carrie Gibson192F40Helm hill0:57:59Finish
190Thomas Price421M0:58:03Finish
191James Crompton116MSuper Dissy Group0:58:03Finish
192Lawrence Ferguson170MThompo's Tempo Trailers0:58:07Finish
193Frederick Brock65MFreddie0:58:08Finish
194Matthew Cannon83MHelm Hill Runners0:58:11Finish
195Marcus McDonald342MMarcus0:58:18Finish
196James Carradice87M0:58:22Finish
197Liz McNally352F40Leven Valley AC0:58:24Finish
198Debbie Copley103F50Dallam Running Club0:58:24Finish
199Matthew Hillen238M0:58:27Finish
200Mark Glaister198M50UKC/RFAX0:58:28Finish
201Anne Gumbley216F0:58:33Finish
202Scott Ben Brahim44M0:58:34Finish
203Paul Chapman96M400:58:41Finish
204Peter Blackburn45M400:58:43Finish
205Chris Hill237MTeam James0:58:45Finish
206James Brooker68MTeam James 0:58:45Finish
207Stefan Bradley54M400:58:48Finish
208Emily Fitzherbert176F400:58:56Finish
209Calum MacLean324M0:58:57Finish
210Josh Bradley596M0:58:57Finish
211Jenny Allen9F0:59:05Finish
212Jeremy Barnes28M50Vegan runners0:59:06Finish
213Rob Fishwick175M400:59:07Finish
214Adam McGinley343MDH Runners/Deadfish0:59:09Finish
215Liam Derome133MRevenges 0:59:13Finish
216Colin Scotchford463M500:59:24Finish
217Jon Barton32M500:59:25Finish
218Kevin Duncan146M400:59:30Finish
219Elizabeth Arden Lingford12F50the grrrs!0:59:33Finish
220Mark Aldred614M0:59:42Finish
221Dave Horton255M500:59:51Finish
222Alex Jones279M0:59:51Finish
223Cheryl King290F40Black Combe Runners0:59:52Finish
224David Butler77M500:59:52Finish
225Daniel Bailey21M0:59:53Finish
226Edward Ireland607M0:59:55Finish
227John Leech617M500:59:56Finish
228Claire Maxted339FWild Ginger Running0:59:57Finish
229Neil Shaw470M400:59:59Finish
230Emily Douglas138FEmily Douglas1:00:05Finish
231Christopher Moss363M401:00:12Finish
232Matthew Young586M1:00:12Finish
233Sharn Hooper253FSuper dissy group1:00:18Finish
234Ash Green206M401:00:19Finish
235Simon Smith482M1:00:20Finish
236Benjamin Dandy125M1:00:23Finish
237Richie Philip603M1:00:25Finish
238Jacqueline Nowell377F501:00:27Finish
239Mark Walker531M50Kendal AC1:00:31Finish
240Amy Curran122FAmy1:00:40Finish
241Josh Wilde547MFuse1:00:43Finish
242Paul Dye149M50Paul Dye1:00:44Finish
243Marcio Tomaz Bonifacio516M1:00:46Finish
244Cliff Etherden158M701:00:48Finish
245Karen Oldham380F50Levens Valley AC1:00:52Finish
246Terry Wilkinson613M401:00:54Finish
247Tony Hodson243M50How gill Harriers1:00:56Finish
248Scott Postlethwaite415M501:01:01Finish
249Mark Bean36M40Valley striders1:01:02Finish
250Philip Lee305MPhilistine1:01:07Finish
251Steph Wilson552F1:01:12Finish
252Mervyn Rice440M601:01:13Finish
253Ryan Beardsworth37M50Red Rose Runners1:01:18Finish
254Thomas Keegan281M50Howgill Harriers1:01:18Finish
255Gavin Ellis157M1:01:22Finish
256Stuart Bell41M601:01:25Finish
257Duncan Campbell82MTeam Shambles1:01:25Finish
258David Wilson553M50Bowland FR1:01:27Finish
259Rudolf MacIejkowicz321M601:01:30Finish
260Tim Marjot331M1:01:32Finish
261Ali Clark97F401:01:33Finish
262Rhys Evans575MSans Nino1:01:36Finish
263Richard Dodds137M401:01:40Finish
264Christopher Smith-Duque484M401:01:42Finish
265Rob Halliday578M1:01:42Finish
266Stephanie Heys233F1:01:44Finish
267Jo Kilkenny289FAmbleside AC1:01:49Finish
268Daniel Slome479M401:01:56Finish
269Gemma Ramage431F1:01:57Finish
270Chris Scales461M401:01:59Finish
271Sue Moul364F501:02:01Finish
272Andy Monk358M60FRA1:02:05Finish
273Ross Gourlay202M40Roundhay Runners1:02:06Finish
274Phil Davies128M1:02:06Finish
275Andrea Kelly282F40Swim The Lakes1:02:08Finish
276Wilfred Bell42M601:02:09Finish
277Craig Munro616M1:02:10Finish
278Bruce McLoughlin350M501:02:12Finish
279Gayle Denny131F1:02:16Finish
280Katie Jackson-Roe269FHelm hill runners1:02:21Finish
281Jonathan May340M501:02:25Finish
282Ally Cunningham121M501:02:28Finish
283Tomasz Woznikowski560MTomek 1:02:31Finish
284David Johnson273M501:02:35Finish
285Zoe Decool597F1:02:36Finish
286Jane Ford180F1:02:38Finish
287Martin Wilson555M601:02:39Finish
288Russell Winch556MRunning Squirrels1:02:39Finish
289Jo Rodham448F1:02:40Finish
290Dorothy Pelly407F60Ambleside AC1:02:41Finish
291Nicholas Graham204M401:02:41Finish
292Fiona Taylor501F1:02:44Finish
293Lorna Coyle113F501:02:44Finish
294Larissa Sherman471FC Seals1:02:48Finish
295Melissa Spencer487F1:02:49Finish
296Mark Houghton256M401:02:51Finish
297Andrew Denton132M50Andrew Denton1:02:57Finish
298Richard Beaumont38M501:02:58Finish
299Wendy Dodds136F601:02:59Finish
300Quentin Merritt353M501:03:05Finish
301Ryan Purtill425M1:03:06Finish
302Jacob Turney527MShegs 1:03:07Finish
303David Barnsley570M1:03:07Finish
304Thomas Kirk292MKirk1:03:12Finish
305Matt Atkinson18M1:03:15Finish
306Andrew Harris606M1:03:15Finish
307Tony Watson538M40T1:03:16Finish
308Daniel Homer252MDave1:03:24Finish
309Madara Brice59FEdi Uni Orienteering Club1:03:26Finish
310Maria Hearn227F40Helm1:03:28Finish
311Brian Webster541M501:03:28Finish
312Rebekah Beadle34F501:03:32Finish
313Anastasia Winder557FLeven valley ac1:03:46Finish
314Eddy Flynn179M1:03:47Finish
315Jonathan Oliphant381MJonathan Oliphant1:03:48Finish
316Marcus Wild612M1:03:51Finish
317Chris Vincent574M501:03:55Finish
318Phil-simon Buendia73M1:04:02Finish
319Elizabeth Fleetwood177F501:04:03Finish
320Elizabeth Smith480F1:04:09Finish
321Liz Campbell81F501:04:19Finish
322Izzy Jones276FRwanda1:04:19Finish
323David Smith483M1:04:21Finish
324Stuart Kenny285MStuart Kenny1:04:23Finish
325Christine Findlay172F1:04:24Finish
326Veronica Barnsley571F401:04:24Finish
327Simon Pagan396M401:04:28Finish
328Helen Greenep208F501:04:37Finish
329Carlos Torres517M1:04:40Finish
330Allison McIntyre349F401:04:49Finish
331Jessie-may Morgan359F1:04:49Finish
332Jackie Welburn542FBeeston AC1:04:53Finish
333Paul Holmes250M401:05:02Finish
334Rosie Iron266F1:05:12Finish
335Mel Plumbridge608F50Rugby Triathlon Club1:05:13Finish
336Hilary Oliver383F1:05:14Finish
337Brendan Leonard306M1:05:15Finish
338Amelia Carman86F1:05:15Finish
339Terry Parr402M601:05:16Finish
340Kate Brayshaw56F40Helm Hill1:05:20Finish
341Christopher Duncan145MPeculiar Velocities1:05:23Finish
342Mark Cottam109M1:05:24Finish
343John MacK322M401:05:26Finish
344Clare McGlasson344FClare1:05:29Finish
345Vicky Atkinson17F40Helm Hill1:05:33Finish
346Andy Dickson580M50Coniston1:05:38Finish
347Amy Oliver382FHelm Hill Runners1:05:39Finish
348Zoe Donnely589FFRC1:05:40Finish
349Kath Hoyer259F50Wesham Road Runners1:05:49Finish
350Mary MacLeod325F1:05:49Finish
351Lawrence Cray115M1:06:08Finish
352Stephen Lockwood312M601:06:15Finish
353George Wilson554M501:06:29Finish
354David Southern Hall218MPbfitcamp1:06:31Finish
355Said Lechheb602M1:06:32Finish
356Morag O Neill378F40Lancon1:06:33Finish
357Laura Lawler298F50Lancon1:06:37Finish
358Tessa Baker23F1:06:37Finish
359Andy Holme248M401:06:37Finish
360Elliot Standfield594M1:06:39Finish
361Frances Moseley361F1:06:40Finish
362Richard Leafe303M501:06:44Finish
363Anna Gibson193F1:06:44Finish
364Catherine Burke74F1:06:51Finish
365Andy Brayshaw57M401:06:52Finish
366John Walter533M601:06:53Finish
367Andy Ginty196M501:06:55Finish
368Amy Wilkin595F401:07:00Finish
369Richard Cater91M401:07:03Finish
370Tim Field171M50Gosforth Social Running1:07:04Finish
371Rebecca Atkinson15F1:07:06Finish
372Vicki Rogerson449FBentham beagles1:07:14Finish
373Sarah Senior468F50Helmhill1:07:18Finish
374Ken McGrattan345M40Bentham Beagles1:07:21Finish
375Louise Kirrage293F1:07:28Finish
376Sarah Ingram264F401:07:28Finish
377Chris Taylor503M1:07:35Finish
378Mark Porter414M50Lancon1:07:37Finish
379Patty Davies127F50Helm Hill1:07:43Finish
380Emily Snape485F1:07:51Finish
381Miranda Taylor500F50KTC1:07:55Finish
382Edward Taylor502M401:08:03Finish
383JP Medland576MSans Nino1:08:08Finish
384David Patrick404M50Beeston AC1:08:15Finish
385Mirsie Caka79F40Mirsie1:08:18Finish
386Kevin Gillon195M40Fuse1:08:19Finish
387Andrew Bucknell72M1:08:22Finish
388Olwen Cunningham119F40Triers1:08:25Finish
389Matthew Bailey22M1:08:25Finish
390Jo Evelyn160F401:08:30Finish
391William Britton61M1:08:34Finish
392Mark Mulryan367M50Lancon1:08:42Finish
393Mary Saunders458FAlchester Running Club1:08:48Finish
394Christopher Plumpton411M601:08:52Finish
395Samuel Baker24M1:08:55Finish
396Kilian Doyle142M401:08:58Finish
397Fiona Cole100F50Kendal Tri club1:08:59Finish
398Przemek Dziewiatkowski152MNine91:08:59Finish
399Tom Scott466MTeam TK1:09:03Finish
400Mark Burns592M501:09:08Finish
401Imogen Wall532FShegs'1:09:11Finish
402John Parton403M40Columbia1:09:11Finish
403Emma Plumridge611F1:09:13Finish
404Lara Dickinson134F1:09:14Finish
405Justin Barker605M401:09:14Finish
406Alison Ince568F501:09:15Finish
407Katie Plumridge610F1:09:18Finish
408Paul Bacon19M1:09:20Finish
409Rob Bushby604M501:09:23Finish
410Rob Aindow3M401:09:24Finish
411Joanne Grisedale213F40Helm Hill1:09:25Finish
412Paula Morillo Lobaton621F1:09:28Finish
413Anne Taylor498F1:09:29Finish
414Charlotte Mason335F40None1:09:31Finish
415Jenny Mitchell356F401:09:37Finish
416Jo Blackwood46F1:09:37Finish
417Viki Kent-Carlile286F401:09:38Finish
418Emma Cattermole92F401:09:44Finish
419Elizabeth Adams1F40Helm Hill Runners 1:09:48Finish
420Katy Alexander8F1:09:49Finish
421Richard Oliver385M40CharlieMacdennis1:09:57Finish
422James Thompson508M401:10:09Finish
423Toby Rowe454M401:10:32Finish
424Mirabela Roman450F401:10:48Finish
425Matt Barclay27M1:10:49Finish
426Lee Shorrock472M401:10:51Finish
427Ed Key288M40Jogging Pals1:10:55Finish
428Jeremy Gauntlett-Gilbert189M401:10:59Finish
429Jenny Reid437F401:11:05Finish
430Rebecca Howett258F1:11:05Finish
431Ben Jones277M1:11:05Finish
432Cyriaque Lajoinie296M401:11:05Finish
433Linda Cunningham120F501:11:23Finish
434Karen Sutherland567F501:11:23Finish
435Cemlyn Griffith212M1:11:26Finish
436Matthew Ray618M401:11:26Finish
437Fiona Bannister25F401:11:34Finish
438Cassie Eastman153F401:11:34Finish
439Helen Jacques270F501:11:38Finish
440Dean Pallister397M40Allithwaite Running Club 1:11:43Finish
441Linda Gant187F601:11:44Finish
442Darren Street492M501:11:44Finish
443Matt Savidge459M401:11:46Finish
444Joe Atherton14MLFC1:11:47Finish
445Richard Lote314M501:11:57Finish
446David Mainwaring328M501:12:00Finish
447Helen Gomm200F401:12:00Finish
448Christine Johnson569F501:12:01Finish
449Rebecca Havranek579F1:12:02Finish
450Steph Fulke581F1:12:03Finish
451Georgia Arnold13F1:12:05Finish
452Malcolm Nicholas374M601:12:09Finish
453Kate Evans159F1:12:17Finish
454Emma Palmer398F401:12:29Finish
455Robyn Townsend519FSunderland Harriers1:12:40Finish
456Jen Pedley406F1:12:41Finish
457Isobel Williamson550F601:12:43Finish
458Adrian Dobson135M50Team Dobson1:12:43Finish
459Mark Nichols375M60Watford Joggers1:12:44Finish
460Juliet Cornelius-Rumsey105F501:13:03Finish
461Victoria Parkinson401F40Plodding donkeys1:13:09Finish
462Agnieszka Dudlik143F1:13:10Finish
463Jason Watters539M40Plodding donkeys1:13:11Finish
464Yvonne Robertson445F50ROB1:13:14Finish
465Aiste Marcinkute330F1:13:19Finish
466Duncan Lawson301M1:13:20Finish
467Christine Wilson551F601:13:26Finish
468Paul Wolf559M501:13:41Finish
469Jim Foster182M40Trailblazers1:13:41Finish
470Tim Marsh332M401:13:50Finish
471Alyson Blakeley47F40roundhay runners1:13:50Finish
472Julia Colston101F1:13:54Finish
473Jo Tansley Thomas497F1:13:54Finish
474Joaquin Merzo354M601:13:58Finish
475Sarah Wright582F40Eden Runners1:14:18Finish
476Jennifer Harris222F401:14:25Finish
477Rebecca Bean35F1:14:41Finish
478Patricia White544F50Women On The Run1:14:48Finish
479Kevin Cornwell106M1:14:53Finish
480Jennie Platt410F1:14:54Finish
481Josh Macaulum609M1:14:55Finish
482Emma Holmes249F1:14:57Finish
483Rachel Bell40F1:14:59Finish
484Austin Trelfa521M601:15:02Finish
485Phil Corris107M60Lancon1:15:04Finish
486Kristiyna Medland577FSans Nino1:15:25Finish
487Lucy Williams549F1:15:42Finish
488Simon Matthews337M1:15:50Finish
489Petra Madarasan326F40Jogging Pals1:16:05Finish
490Jill Leader302F601:16:06Finish
491Juliette Pignat409F1:16:06Finish
492Derek Paling573M601:16:06Finish
493Joanne Cook102F1:16:08Finish
494Aisling Oriordan387F401:16:11Finish
495Gary Hollis246M50G&C1:16:16Finish
496Carol Downing141F501:16:17Finish
497Mark Padley395M40Lincsquad1:16:23Finish
498Kerry Padley394F40Scunthorpe & District AC1:16:23Finish
499Dawn Lawson300F401:16:30Finish
500Kath Davis129F501:16:36Finish
501Anthony Orr388M501:16:43Finish
502Julie Eyre161F501:17:00Finish
503James Heslop232M1:17:02Finish
504Gill Sykes495F501:17:09Finish
505Jill Cannon Jones84F401:17:10Finish
506Vicky Johnston274F40St Bees Triers1:17:16Finish
507Dan Foster183M40Fylde coast Runners1:17:22Finish
508Rachel Horner254F1:17:37Finish
509Siobhan Firman173F1:17:37Finish
510Julie Gitlin197F50Super Dissy Group1:17:45Finish
511Katharine Brock64FTeam TK1:18:08Finish
512Dave Waywell540M70Wesham Road Runners1:18:21Finish
513Frances Watkins536F401:18:34Finish
514David Higson236M501:18:34Finish
515Joanne Newhouse373F401:18:35Finish
516Claire Welburn543F401:18:36Finish
517Helen Kennedy284FRoundhay Runners1:19:39Finish
518Georgie Brasher55F401:19:48Finish
519Laura Miller355F1:19:49Finish
520Will Friend186M1:20:03Finish
521David Wilkinson548M501:20:08Finish
522Alison Hullah260F50Team Hullah1:20:11Finish
523Jane Pye428F401:20:15Finish
524Laura Stainton488F1:21:36Finish
525Joanna Taylor499F501:22:06Finish
526Diane O'Meara386F401:22:06Finish
527Jordina Farrus165F1:22:08Finish
528Phillipa Haworth225F1:22:21Finish
529Lisa Dutfield148F401:22:42Finish
530Hilary Oxley392F501:22:44Finish
531Zachary Vernon530M1:22:46Finish
532Wendy Navin370F40Cumberland AC1:23:06Finish
533Tricia Radcliffe430F50St Bees Triers 1:23:09Finish
534Sophie Pybus426F1:23:44Finish
535Kevin Hullah261M50Team Hullah1:23:52Finish
536Sarah Haworth224F401:24:00Finish
537Sarah Castro89F1:24:54Finish
538Lisa Turland523F1:25:04Finish
539Vicki Buss76F401:25:22Finish
540Emma Brennand58F1:25:23Finish
541Diane Danson126F401:27:02Finish
542Laurence Edge154M60Rons Runners1:27:17Finish
543Daniel Albert7M601:29:02Finish
544Mick Jennings271M601:30:33Finish
545Gillian Oliver384F401:30:38Finish
546Stephen Lockett310M40Lockett Express1:30:49Finish
547Alison Lockett309F401:30:49Finish
548Viri Sica473F401:30:58Finish
549Kemi Mafe327FHood To Trail1:31:46Finish
550Christian Ainsley5M401:33:01Finish
551Ian Goodall201M1:33:02Finish
552Gemma Ainsley4F1:33:04Finish
553Annie Consiglio593F1:33:04Finish
554Jane Smith481F1:33:32Finish
555David Watson537M501:35:23Finish
556Philip Butterworth78M501:36:07Finish
557Erica Mason334F601:36:28Finish
558Jenny Foster181F1:45:33Finish
559Paul McMonagle351M1:45:33Finish
560Linda Farquhar164F701:47:01Finish
561James Quigley565MFuse1:49:45Finish
562Wendy Thompson505F401:50:39Finish
563Dawn Raper433F501:50:40Finish